Wind_Speed
36 37 37 36 35 33 30 27 25 28 31 30 29 29 29 30 30 30 30 30 30 29 28 27 27 26 24 24 24 23 24 24 24 24 23 23 23 24 24 25 25 24 23 23 24 26 27 28 28 27 26 26 27 27 27 27 26 26 29 30 29 30 32 34 35 35 35 34 33 32 32 33 33 33 33 34 36 37 37 36 36 36 35 35 35
37 37 37 36 35 33 29 26 24 27 30 28 27 27 28 29 28 28 28 29 29 28 27 26 26 26 24 24 24 23 23 24 24 24 23 22 23 23 23 24 24 24 23 23 24 24 26 27 28 28 28 28 28 29 29 29 28 27 27 29 30 31 33 34 36 37 37 37 37 35 33 33 34 33 32 33 35 37 37 37 37 37 37 37 37
37 38 38 37 36 33 29 26 24 26 28 27 26 26 27 28 27 26 27 28 28 28 27 25 25 25 24 23 23 23 23 23 23 23 23 22 22 23 23 23 24 24 23 23 24 24 24 25 26 27 28 29 30 30 31 31 31 30 29 30 30 31 31 33 35 38 40 40 40 37 36 36 35 34 34 34 36 37 38 38 38 38 38 38 38
34 36 37 38 37 33 29 26 23 24 27 26 25 26 25 25 25 25 26 26 28 27 27 25 25 25 24 23 23 23 23 23 23 23 23 22 22 23 23 23 24 23 23 23 24 23 24 24 24 25 26 28 29 30 31 32 32 33 32 32 33 32 31 32 34 37 40 42 41 40 40 40 38 37 38 37 37 37 38 39 38 39 39 39 39
32 33 35 37 37 33 28 25 23 24 26 26 26 26 25 24 24 25 25 25 26 27 26 25 24 24 24 23 23 24 24 23 23 23 23 23 23 23 23 23 23 23 23 23 23 24 24 24 24 24 25 27 28 29 30 31 32 34 34 34 34 34 34 35 35 35 37 41 43 42 42 41 40 42 43 41 40 39 39 39 39 39 39 39 38
31 32 34 37 36 33 28 24 23 24 26 26 25 25 24 23 23 24 24 25 25 26 26 26 24 24 24 23 23 24 24 24 24 23 23 23 23 23 23 24 23 23 23 23 23 24 24 24 24 24 25 26 27 28 29 30 31 33 34 34 35 35 36 37 36 36 37 40 42 42 43 43 44 47 46 44 44 43 42 41 39 38 39 39 38
28 30 32 35 35 33 28 24 23 24 26 25 25 25 24 23 22 23 24 25 25 25 25 25 24 24 23 24 23 24 25 25 24 24 24 24 24 24 24 24 24 24 23 23 24 24 24 24 25 25 25 26 26 27 29 30 30 32 33 34 34 35 37 37 37 38 39 39 39 40 42 43 47 50 48 46 46 45 44 44 41 39 39 39 39
25 27 30 33 33 32 29 25 23 24 25 24 24 25 25 23 22 23 24 25 26 25 24 24 24 24 23 24 24 24 25 25 25 25 25 25 25 25 26 26 26 25 25 24 24 24 24 25 25 26 26 26 26 27 28 29 30 31 32 33 34 35 36 37 37 39 41 40 39 41 41 40 45 49 49 47 47 46 44 44 44 43 41 40 39
23 25 27 31 31 30 28 26 24 24 25 25 24 25 25 23 23 24 24 25 26 25 23 24 24 24 24 23 24 24 24 25 25 25 25 26 26 26 26 27 27 27 27 26 25 25 25 25 26 26 27 27 27 27 28 29 30 31 32 33 33 34 36 37 38 39 41 40 40 42 41 41 42 45 46 45 46 46 44 43 44 45 44 43 42
21 22 24 27 29 28 27 26 24 23 24 25 24 25 26 24 23 25 24 24 25 25 24 23 24 25 25 24 24 24 25 25 25 26 26 26 26 27 27 27 28 28 28 28 27 27 26 26 26 27 27 28 28 28 28 29 30 31 32 33 34 35 36 37 38 39 41 41 41 42 42 43 43 44 45 43 43 43 42 42 44 46 46 46 46
20 20 22 24 27 26 25 24 23 22 23 25 25 25 26 24 23 24 24 23 24 24 24 24 24 25 25 25 25 25 25 25 25 26 27 27 27 28 28 28 29 29 29 29 29 29 28 28 27 27 28 29 29 29 29 30 31 31 33 34 34 35 36 37 38 39 41 41 42 43 44 44 45 45 46 46 45 44 41 40 43 47 48 46 47
22 22 23 24 25 24 23 22 21 21 22 24 25 26 26 24 23 24 24 23 23 24 24 24 24 24 25 26 26 25 26 26 26 27 28 28 28 28 29 29 30 30 30 30 30 30 29 29 29 29 29 29 30 31 31 31 32 33 34 34 35 36 37 38 39 39 41 42 43 43 44 46 46 46 46 47 46 45 45 42 41 45 50 49 48
23 24 25 25 25 25 24 23 22 21 21 23 24 25 25 25 24 24 23 22 23 23 24 24 24 24 25 26 26 26 26 27 27 28 28 29 29 29 30 30 30 30 31 31 30 30 30 30 30 30 30 30 31 31 32 33 33 34 35 36 37 37 38 39 39 40 41 42 43 44 45 46 47 47 47 48 47 46 48 47 43 44 48 50 49
25 26 27 27 27 28 27 26 25 24 23 24 25 25 25 25 24 24 24 22 22 23 24 24 24 25 25 26 26 26 27 27 27 27 28 29 29 29 30 30 30 30 30 30 30 30 30 30 30 31 31 32 32 32 33 34 34 35 36 38 38 39 40 40 41 41 42 43 44 45 45 46 47 48 48 49 49 49 50 50 48 48 49 49 49
30 30 30 31 29 29 29 29 29 28 27 27 28 27 26 25 25 24 24 22 22 23 24 25 25 25 26 26 26 26 27 27 28 28 28 29 29 29 30 30 31 31 31 31 31 31 31 31 32 32 32 33 33 34 34 35 36 36 37 38 40 40 41 42 43 43 44 44 45 46 47 47 48 48 49 50 50 51 52 52 52 52 52 51 50
30 30 29 30 30 27 26 26 27 27 27 28 28 28 27 26 25 25 24 23 22 23 24 25 25 26 27 27 27 27 28 29 29 29 30 31 31 31 31 32 32 32 33 33 33 34 34 35 35 35 34 34 35 35 35 36 37 38 38 39 40 41 42 43 44 45 46 46 47 47 48 48 49 49 50 50 51 53 54 54 54 54 54 54 54
27 28 27 28 28 26 23 22 23 23 24 25 25 26 28 28 27 26 26 25 23 24 25 26 26 27 28 28 28 29 29 30 30 30 31 32 32 32 32 33 33 33 34 34 34 35 35 36 37 37 37 37 37 37 37 37 37 38 39 40 41 42 43 44 45 46 47 48 48 49 49 49 50 51 52 52 52 53 54 55 56 56 56 57 57
23 25 28 28 27 26 24 22 21 20 21 22 23 24 26 28 28 28 29 27 25 25 27 28 28 29 30 30 31 31 31 31 31 31 32 32 33 33 34 34 34 35 35 35 36 36 37 38 38 39 39 39 39 39 39 39 39 39 39 40 41 43 44 45 46 47 48 49 50 51 51 51 51 52 53 54 54 54 54 55 56 57 58 60 60
26 25 27 30 28 25 24 24 22 21 20 21 22 24 25 26 28 30 31 29 27 26 28 29 30 31 32 32 33 33 33 33 33 33 33 34 35 35 35 36 36 37 37 38 38 38 39 40 40 40 41 41 41 41 41 41 41 41 41 41 42 43 44 46 47 48 49 50 51 52 53 53 53 53 54 55 55 56 56 56 56 57 59 61 61
27 25 26 30 31 28 27 27 26 25 24 23 23 24 25 26 27 29 29 29 28 28 29 31 32 32 33 33 34 34 34 35 35 35 36 36 36 36 37 37 38 38 39 39 39 40 41 41 42 42 43 43 44 44 44 43 43 43 43 43 43 43 44 46 48 49 50 51 52 53 54 54 55 55 55 56 56 57 57 58 58 57 58 60 61
28 27 27 29 32 31 29 28 28 29 29 27 26 26 26 26 26 27 28 27 27 27 28 31 33 33 33 33 34 34 34 35 35 36 36 36 37 37 38 38 39 39 40 40 41 41 42 43 44 44 45 46 46 46 47 46 46 45 45 46 46 45 45 45 47 49 51 52 52 53 54 55 56 56 56 57 57 57 57 58 59 59 59 59 60
34 34 31 30 33 34 32 30 31 32 32 30 28 27 27 26 26 28 29 28 27 26 27 29 30 30 31 32 32 32 32 33 34 35 35 36 37 38 38 39 40 41 42 42 43 43 44 45 45 46 47 47 48 48 49 49 49 48 47 47 48 48 47 47 47 48 50 52 53 53 54 55 57 57 57 57 57 58 58 58 58 59 59 59 60
37 36 33 32 34 35 34 34 35 35 34 32 31 31 30 29 29 30 30 30 29 28 26 26 27 28 29 30 30 31 32 32 34 34 36 37 38 39 40 41 42 42 43 44 45 45 46 46 47 47 48 48 49 49 50 50 50 50 49 48 49 49 49 49 49 48 50 52 53 54 54 54 56 57 58 58 58 58 58 59 58 59 59 59 60
37 38 36 35 37 39 39 38 37 36 36 35 35 35 33 31 31 32 32 31 30 29 27 28 30 30 30 31 31 32 33 33 34 35 37 38 39 40 41 42 43 43 44 45 46 46 47 47 47 48 48 49 49 49 50 50 51 51 50 50 49 50 50 51 51 50 50 51 53 54 54 54 55 56 57 58 58 58 58 59 59 59 60 59 59
40 41 41 40 40 42 43 41 39 38 39 40 41 40 35 33 33 34 34 35 34 32 31 31 33 33 32 32 32 33 33 35 36 37 38 39 39 40 41 42 43 44 45 45 46 46 46 46 47 47 48 48 49 49 50 50 51 51 51 51 50 50 51 52 52 52 52 52 53 54 55 55 55 55 56 56 57 57 58 59 59 59 60 60 60
40 42 43 42 41 42 42 42 41 41 41 43 45 43 39 39 39 38 37 36 36 36 35 35 36 35 34 34 33 33 35 36 37 38 39 39 39 39 40 41 42 43 44 44 45 45 45 45 46 46 47 48 49 49 49 50 50 51 52 52 51 51 51 52 52 53 53 53 54 55 56 56 56 55 56 56 56 56 57 58 59 59 60 60 60
42 43 43 43 43 44 45 45 44 43 44 46 47 46 46 45 43 41 40 39 39 40 40 39 39 38 37 37 36 35 36 37 38 38 39 39 39 40 40 40 41 42 43 43 44 44 45 45 46 47 48 49 49 49 50 50 50 51 52 53 53 52 52 52 53 53 54 54 54 55 56 57 57 57 56 56 56 56 57 57 58 58 59 60 61
47 48 48 48 48 47 48 48 47 46 47 50 50 50 49 47 44 43 43 44 45 44 42 41 40 39 39 38 37 37 37 37 38 38 39 39 39 40 40 40 41 41 42 42 43 43 44 45 47 48 49 50 50 51 51 51 51 52 53 53 54 54 53 53 53 53 54 55 56 56 57 57 58 59 58 57 56 56 57 56 57 57 58 59 60
52 52 52 52 53 53 53 54 54 53 51 51 52 52 52 51 49 47 46 48 47 43 43 44 43 41 41 40 39 38 38 38 38 38 38 39 39 39 39 40 40 41 41 41 41 42 43 44 46 47 48 49 49 50 51 51 52 52 53 54 55 55 55 55 55 54 54 55 56 57 57 58 59 60 60 59 58 57 57 57 56 57 57 57 58
55 54 54 54 54 56 57 59 60 60 58 56 54 54 54 54 54 53 51 50 47 45 46 48 48 46 45 45 43 41 39 39 38 38 38 38 38 38 39 40 41 41 41 40 41 42 44 45 46 46 47 47 48 48 49 50 51 51 52 54 54 55 56 56 56 56 56 56 56 57 58 58 59 60 61 61 61 59 58 58 57 57 57 57 57
57 56 56 56 56 57 58 60 61 62 63 61 59 57 57 56 54 55 56 53 49 49 50 50 52 51 49 47 45 42 39 39 38 38 38 38 38 39 39 40 41 41 41 40 41 42 44 46 47 47 47 48 48 49 49 50 50 51 52 53 53 54 55 56 56 57 57 57 57 57 58 59 59 60 62 62 63 62 61 60 58 57 57 58 58
58 58 58 58 58 58 59 61 62 62 63 63 62 62 61 58 54 53 56 54 51 51 51 52 52 52 49 46 42 40 38 38 38 38 38 38 38 39 39 40 41 41 40 40 42 44 46 47 48 49 49 49 49 50 51 51 51 52 53 53 53 54 54 55 56 56 57 57 57 58 58 59 59 60 62 63 63 63 63 62 61 59 58 58 58
60 60 59 60 60 60 60 61 62 63 64 63 64 63 63 63 58 55 57 57 53 49 49 51 50 47 45 42 39 38 38 38 38 39 39 39 39 39 40 41 41 40 40 41 44 47 49 50 49 49 50 50 50 50 51 52 52 53 54 54 55 55 54 55 55 56 56 57 57 57 58 58 59 60 61 63 64 64 64 64 63 62 60 59 59
58 58 57 57 58 58 58 58 59 61 64 65 65 64 63 63 63 60 59 60 58 53 49 49 47 41 39 38 37 37 38 38 39 40 39 39 39 40 41 41 41 40 40 43 46 48 50 51 50 50 50 50 51 51 51 52 53 53 54 55 56 56 55 55 56 56 57 57 57 58 58 58 59 60 61 62 64 65 65 64 64 63 62 60 60
54 54 54 54 55 56 56 56 57 59 61 64 65 65 63 63 63 61 59 59 60 58 53 51 47 39 34 35 35 36 38 39 40 40 40 40 40 41 41 41 40 40 42 45 48 50 52 52 51 51 51 51 51 51 51 52 52 53 54 55 56 56 56 56 56 57 57 58 58 59 59 59 59 59 60 62 63 64 65 65 65 64 63 62 61
52 53 54 55 55 56 57 57 57 56 57 59 62 63 63 62 62 62 61 57 58 58 54 52 50 42 34 32 34 36 39 40 41 42 42 41 42 42 42 41 41 42 44 47 49 51 53 53 52 51 51 51 51 51 52 52 53 54 54 55 56 56 57 57 57 57 58 59 59 60 61 61 61 60 60 61 62 64 65 65 65 65 64 63 62
56 55 55 56 56 56 58 59 58 57 56 56 58 60 61 60 60 62 63 60 59 58 53 51 52 48 38 33 35 39 41 41 42 43 42 42 42 42 42 42 43 44 47 49 51 53 55 55 53 52 51 51 51 52 53 54 54 54 54 54 55 55 56 56 57 57 58 59 60 61 62 62 62 62 61 61 62 64 64 65 65 65 65 64 62
54 52 52 53 53 53 53 54 55 57 55 53 54 57 59 58 59 61 63 62 60 57 54 53 52 47 38 34 36 39 41 42 43 43 43 43 43 43 43 43 45 47 49 51 53 55 57 56 53 52 52 52 52 53 53 53 53 53 53 53 53 54 55 55 56 56 57 58 59 60 61 62 63 63 63 63 63 63 64 64 65 66 66 65 62
47 47 45 44 44 45 45 46 47 49 49 49 50 53 55 55 55 58 61 61 58 55 57 60 56 49 44 42 40 39 40 42 43 43 43 43 43 43 43 45 47 50 52 53 55 58 58 56 53 52 53 53 53 53 52 52 51 51 52 53 53 54 54 54 55 55 55 56 58 59 60 61 61 62 63 63 63 64 64 64 65 66 66 64 63
43 43 42 40 40 42 42 41 41 43 45 46 46 48 51 51 52 53 55 55 54 54 58 60 58 55 53 48 42 40 41 41 42 43 43 43 43 44 45 47 49 51 53 56 58 59 57 54 53 54 54 54 52 51 51 51 52 53 54 54 55 55 54 54 54 54 54 54 56 57 58 59 59 60 61 62 63 64 64 65 65 66 65 64 64
41 40 38 38 39 41 43 40 38 40 42 43 43 45 47 47 47 48 48 49 52 55 57 57 55 54 50 44 41 41 41 41 42 43 43 43 44 45 46 48 50 53 56 58 58 57 55 53 54 54 54 52 51 51 51 53 54 55 55 55 55 53 53 52 51 51 51 52 52 54 55 56 56 58 59 61 62 63 64 65 66 65 64 65 67
36 37 36 36 37 40 42 39 35 36 38 38 39 40 40 42 43 43 44 48 51 52 52 50 48 46 43 40 40 41 41 42 42 42 43 44 45 45 47 49 52 55 56 56 56 54 54 54 54 54 52 51 51 52 53 55 55 56 55 54 52 50 50 51 50 50 50 50 51 52 53 53 54 55 57 58 60 61 63 64 65 65 66 67 68
32 34 35 36 36 38 38 34 31 31 32 31 33 36 38 41 43 43 43 45 46 46 45 42 39 38 38 39 40 41 41 41 41 42 43 44 44 46 48 50 52 54 53 53 53 54 54 54 53 51 50 51 53 54 55 56 55 54 53 51 50 50 50 51 51 50 50 50 51 52 53 53 54 54 55 55 56 58 60 61 63 65 67 68 69
31 33 35 36 35 34 32 29 26 26 28 28 30 34 37 38 38 36 36 37 37 37 37 35 34 36 38 39 40 40 39 39 40 40 41 43 44 46 48 49 51 51 51 52 53 54 54 52 50 49 51 53 55 55 55 54 53 51 50 50 50 51 51 52 52 50 48 48 48 49 49 50 51 51 52 53 54 54 56 57 60 63 65 68 70
32 32 33 33 30 28 27 27 25 24 25 29 31 32 33 33 32 30 31 31 29 29 30 31 34 36 37 37 36 36 36 37 38 39 40 43 45 46 47 48 49 50 51 52 53 52 51 49 49 50 52 54 55 54 52 51 50 49 49 50 51 49 49 49 47 43 41 39 39 40 41 43 44 46 48 50 51 52 53 54 56 58 62 65 67
31 30 30 29 27 25 23 22 25 28 28 30 32 29 24 26 29 29 28 27 26 27 29 31 32 31 31 31 32 32 34 35 36 38 40 42 43 45 46 47 49 50 51 51 50 49 48 48 50 52 53 53 52 50 49 48 47 48 50 50 48 45 43 42 39 35 33 32 32 33 35 37 39 41 43 45 47 49 51 52 52 53 56 59 62
26 24 23 23 24 23 18 13 18 25 26 27 28 25 21 24 25 23 22 22 24 27 28 27 26 25 26 27 28 30 32 33 35 37 39 41 43 44 46 47 48 48 49 48 47 47 47 49 51 51 50 49 47 46 46 45 46 48 49 46 41 38 37 35 33 32 31 31 31 32 33 36 38 39 40 41 42 44 47 49 49 49 51 53 55
20 16 16 17 16 20 21 15 13 16 19 22 24 24 23 23 21 18 17 18 21 22 21 20 21 23 24 25 27 29 31 33 35 37 39 41 42 43 44 45 46 45 45 45 46 47 49 50 49 48 46 44 43 43 43 43 45 46 44 38 34 34 33 33 33 33 32 31 31 31 33 35 37 37 37 37 37 38 40 42 44 46 47 49 50
16 14 16 16 13 18 22 18 14 14 15 19 23 23 21 18 16 15 15 16 16 16 16 18 20 22 23 25 26 28 31 34 35 37 38 40 41 41 41 42 42 42 43 45 46 48 48 48 46 43 41 40 39 40 40 41 42 42 38 32 31 32 32 32 33 34 31 30 30 31 32 34 34 34 34 33 32 33 35 36 38 41 43 45 46
15 16 15 13 10 12 14 15 14 13 13 16 18 18 16 14 13 13 13 13 13 14 16 18 20 21 23 25 26 28 31 34 35 36 36 37 37 38 38 38 39 41 43 45 46 47 46 44 41 39 39 38 38 36 35 35 36 35 32 28 26 27 27 28 30 32 30 29 29 31 31 31 31 30 29 29 29 30 31 33 34 35 38 40 43
17 17 13 9 8 10 13 14 14 12 11 13 14 13 12 12 11 11 11 12 14 15 17 19 20 22 23 24 26 28 30 32 33 33 33 33 34 34 35 36 38 40 42 44 45 45 43 41 39 37 36 36 36 35 32 29 28 27 26 24 23 23 25 26 27 29 29 29 29 29 29 29 28 27 27 26 26 26 28 29 30 31 32 34 37
Wind_Direction
270 269 269 269 268 268 268 271 274 276 274 274 274 274 273 273 273 274 274 274 274 274 274 274 274 273 270 268 265 263 262 261 260 260 260 259 257 256 256 257 259 258 254 249 248 249 250 251 252 252 250 249 248 249 249 248 247 247 246 246 242 237 234 230 227 225 226 229 230 232 236 241 242 241 240 242 245 246 245 244 244 244 244 245 246
274 273 272 272 271 271 271 273 275 274 273 274 273 272 271 271 270 271 271 272 272 272 272 272 273 272 270 267 266 263 261 260 260 259 259 258 258 257 256 256 257 258 257 254 251 250 250 251 252 253 252 250 249 247 249 249 248 247 246 247 246 244 241 238 234 232 230 230 231 231 234 239 242 243 241 241 243 245 246 245 245 245 244 245 246
276 276 276 274 273 273 273 273 273 272 271 271 269 267 268 269 269 269 269 270 270 271 270 271 271 271 270 268 266 264 261 260 259 259 258 256 255 256 256 256 256 256 256 255 254 252 252 251 251 253 253 252 251 249 248 248 248 247 247 247 248 248 247 245 242 239 236 234 233 232 233 236 239 242 243 241 240 242 245 246 245 245 245 245 246
274 276 277 276 275 275 275 274 271 268 269 268 265 264 265 266 267 267 267 267 268 270 270 270 270 270 269 268 266 265 263 261 259 258 257 257 255 254 253 253 254 255 255 256 256 255 254 253 252 252 252 253 253 253 251 250 249 249 249 248 249 250 250 250 249 245 240 237 237 236 235 236 237 240 241 241 241 241 242 243 243 244 245 245 245
271 273 275 276 276 276 275 273 268 265 266 266 265 263 262 263 265 265 265 266 267 268 269 269 268 268 267 266 264 264 264 262 260 258 256 256 255 254 253 252 252 252 253 254 255 256 256 256 255 253 253 253 254 254 254 253 252 251 251 250 250 250 250 251 252 251 247 243 241 240 239 240 239 239 240 241 241 240 240 241 241 243 245 245 245
269 271 273 274 275 276 276 273 268 265 265 266 267 266 264 263 264 265 265 266 266 267 268 268 266 265 264 263 262 261 261 261 260 258 257 256 255 255 254 253 252 251 251 252 253 255 256 257 257 256 255 254 254 255 255 254 254 253 253 252 251 251 251 251 253 254 253 250 247 245 245 244 242 242 240 240 242 242 240 240 240 240 243 246 246
267 268 271 273 274 276 277 275 271 268 268 269 270 269 267 266 266 267 266 265 264 264 265 266 265 263 261 260 258 258 258 258 258 257 256 256 255 255 255 254 254 252 250 250 251 253 254 256 257 257 257 257 256 256 257 257 256 255 255 253 252 252 251 250 251 252 253 252 252 250 249 248 246 246 244 243 245 245 243 241 240 240 241 243 245
265 267 268 271 273 276 278 278 276 273 273 273 273 272 271 270 269 267 266 264 263 262 262 263 263 261 258 257 255 254 254 254 254 254 254 254 254 255 255 256 256 256 253 251 251 252 253 255 257 258 259 259 259 258 258 259 259 258 258 256 254 253 252 250 249 249 251 252 252 252 252 251 249 249 249 250 250 249 248 245 241 240 241 242 244
260 264 267 269 274 278 280 280 279 277 276 275 273 273 273 270 269 267 265 264 263 262 261 262 262 261 258 255 253 252 251 252 251 251 251 252 253 254 255 256 258 258 258 256 254 253 253 254 255 257 258 259 259 260 260 260 261 261 261 261 259 256 255 253 250 250 251 250 250 251 253 253 251 250 251 255 256 254 251 247 243 243 243 242 244
258 263 266 268 272 275 279 280 280 278 277 276 273 272 270 268 266 265 263 262 263 262 261 260 261 261 259 256 255 253 251 251 251 251 249 249 251 252 253 255 257 259 260 260 260 258 256 255 255 256 257 258 258 259 259 260 261 262 262 263 262 260 259 257 254 253 253 251 250 251 251 251 252 251 251 254 257 254 251 246 245 247 246 244 244
260 262 264 266 269 272 275 278 279 278 275 273 271 269 267 267 264 262 261 260 261 261 260 258 258 259 261 260 258 256 255 253 253 253 252 250 250 250 250 252 254 256 258 259 260 261 260 258 257 257 257 258 259 259 259 259 260 261 262 262 262 262 261 261 259 257 256 254 252 251 251 250 250 251 251 253 254 253 253 251 247 246 247 247 248
262 261 261 263 266 269 271 273 274 274 273 272 271 269 268 267 263 261 260 258 258 259 258 257 257 257 259 260 259 258 256 255 253 253 253 251 250 249 249 249 250 252 254 256 258 259 260 260 259 259 258 258 259 260 259 259 259 260 261 261 261 262 261 261 261 259 258 257 255 254 253 252 251 251 251 253 254 252 252 252 250 248 247 247 249
266 267 266 265 266 267 268 269 270 270 272 273 272 272 270 268 266 263 261 258 258 259 259 258 257 256 256 257 258 258 256 255 253 252 251 250 249 248 248 248 248 249 251 253 255 257 259 260 260 260 260 259 259 259 259 259 259 259 260 260 261 261 261 261 261 260 260 259 258 257 256 255 254 253 253 253 254 253 251 251 251 252 251 249 249
279 279 279 274 270 268 269 270 271 271 270 271 272 272 272 270 269 266 263 261 259 259 260 259 258 257 256 256 257 257 257 255 253 252 251 250 249 248 247 246 246 247 248 249 251 253 256 257 259 260 260 261 260 260 260 260 260 259 260 260 260 260 260 260 260 261 261 260 260 259 258 257 256 255 254 253 253 253 253 252 252 252 252 251 251
289 289 287 282 277 274 273 273 272 270 267 267 268 270 271 271 271 269 267 265 262 261 261 260 259 258 256 255 256 257 258 257 256 255 254 253 252 251 250 249 248 247 248 249 251 252 254 256 257 258 259 260 261 261 261 261 261 260 259 259 260 260 259 259 259 260 260 260 260 260 259 259 258 256 255 254 254 253 253 252 252 252 253 253 253
287 289 286 283 282 279 277 275 273 271 267 266 267 269 269 269 270 271 270 268 265 262 260 260 260 259 258 257 256 257 258 259 259 259 259 258 257 257 257 256 255 254 253 253 254 255 256 257 258 259 260 260 260 261 261 260 261 261 261 260 259 259 259 259 258 258 258 259 259 259 259 259 259 258 257 255 254 254 253 253 253 252 253 253 254
279 282 281 281 283 283 282 279 278 277 273 269 268 269 268 267 267 268 268 267 265 263 261 261 261 260 260 259 259 259 259 260 261 262 263 264 263 263 263 263 263 262 262 261 261 261 261 261 261 262 262 262 262 262 262 261 261 261 261 261 261 260 260 259 258 258 258 257 257 258 258 258 258 259 258 257 256 255 254 254 254 253 253 254 254
267 268 272 276 281 283 284 282 281 281 278 272 270 271 271 269 267 266 264 263 264 265 265 264 264 263 263 262 262 262 261 262 263 264 265 266 267 267 267 268 268 268 268 267 267 267 266 265 265 265 265 265 265 265 265 264 263 262 260 260 260 260 260 260 259 258 257 257 257 257 257 257 257 257 257 257 257 256 255 255 255 254 255 255 255
257 255 258 265 273 279 280 280 280 280 280 276 275 277 277 276 273 269 266 265 266 268 268 267 267 267 266 265 264 264 264 264 265 266 267 268 270 271 270 271 271 270 270 270 269 269 269 268 268 268 267 267 268 268 268 268 268 266 264 261 259 259 259 259 259 259 258 257 257 257 257 256 256 256 256 256 256 256 256 255 255 255 255 256 256
253 251 246 251 262 271 272 273 276 280 281 278 278 283 286 284 281 278 275 273 272 272 270 268 268 268 268 267 267 267 267 267 267 268 269 271 272 273 274 274 273 272 272 272 271 270 270 270 270 270 269 269 269 269 269 270 270 270 269 266 263 260 258 257 257 258 258 257 257 257 257 257 256 256 256 256 255 255 256 256 256 255 255 255 256
259 255 249 250 257 265 267 267 270 278 283 279 277 286 290 285 282 283 282 281 279 277 274 271 270 270 270 270 270 270 270 271 271 271 273 274 275 276 276 277 276 276 275 274 274 273 271 271 271 270 270 270 270 270 270 270 271 270 270 269 267 264 261 257 255 256 257 257 257 257 257 257 257 256 255 256 256 255 255 255 256 256 255 255 256
267 261 258 258 258 259 261 266 272 279 283 280 278 285 287 280 279 282 284 284 281 279 276 273 271 271 271 272 272 272 273 273 274 275 276 276 277 279 279 280 280 279 278 277 276 275 274 273 273 272 271 271 271 271 270 270 270 270 269 269 268 267 265 260 256 255 254 255 256 256 256 256 257 257 256 255 256 255 255 255 255 256 256 256 256
270 265 265 268 267 262 262 270 277 278 279 278 279 285 283 276 276 281 283 282 279 275 273 271 270 270 271 272 273 273 274 274 275 276 277 278 279 281 281 282 282 281 279 278 277 276 275 275 274 274 273 272 271 271 270 270 270 269 268 267 267 266 266 264 260 256 254 253 255 255 255 255 255 256 257 256 256 256 255 254 254 254 255 255 256
271 271 272 274 274 272 271 274 275 274 275 276 278 284 282 274 275 280 280 279 276 271 268 268 269 269 270 271 272 273 273 274 275 277 278 280 282 283 284 283 282 281 280 279 278 277 276 275 275 274 274 273 273 272 271 270 269 269 268 267 266 265 265 264 262 260 256 254 253 253 255 255 254 254 255 256 257 256 256 255 254 253 254 254 255
269 271 271 270 271 272 273 274 273 272 274 276 279 282 278 272 276 279 277 277 275 269 266 267 268 268 268 269 270 272 274 275 277 279 281 283 284 284 283 282 281 281 280 279 279 278 278 277 276 276 275 274 274 273 273 272 270 269 268 267 266 265 264 263 262 261 258 256 253 252 252 254 255 254 254 255 256 256 256 256 254 253 253 253 253
267 268 269 268 268 269 269 269 270 270 271 274 279 279 274 274 278 279 276 275 274 271 267 266 267 267 267 268 270 272 274 277 280 282 283 284 284 283 282 281 280 280 279 279 279 279 279 279 278 278 277 275 275 274 273 273 273 271 270 268 267 265 264 263 262 261 259 257 255 253 252 252 253 254 255 254 254 254 255 256 255 254 253 252 252
266 266 266 266 266 266 266 265 265 266 268 272 275 275 275 276 278 278 276 274 276 275 270 266 266 266 266 267 269 271 274 278 280 282 282 282 282 282 281 280 280 280 280 280 281 281 282 281 281 279 278 276 275 274 273 272 272 272 271 270 268 266 264 263 262 261 260 259 256 254 252 252 252 252 254 255 254 253 253 254 255 255 254 253 252
266 266 265 264 264 264 264 263 261 262 266 269 270 271 273 273 273 274 274 274 277 275 268 266 266 266 265 265 267 271 274 276 277 278 279 280 280 281 281 280 281 281 282 282 284 285 285 284 282 280 278 277 275 274 273 271 270 270 270 269 269 267 266 264 262 261 260 259 258 256 253 252 252 251 252 253 254 254 253 253 253 254 255 254 253
263 263 263 263 262 261 261 261 260 261 264 266 266 267 268 268 270 272 273 275 274 268 263 264 264 264 264 263 266 271 272 271 272 273 275 277 278 279 280 280 281 282 282 284 286 288 288 286 284 281 279 278 276 275 274 272 271 270 269 268 268 267 266 265 264 262 261 259 258 257 255 253 252 252 251 252 252 253 253 252 252 253 253 253 253
263 261 259 259 260 261 261 261 262 262 264 264 263 264 264 264 266 268 270 273 269 262 261 264 262 261 262 263 266 269 268 267 269 270 272 274 276 277 278 280 281 282 281 283 287 290 290 288 286 284 282 280 279 277 276 275 273 272 271 269 268 268 267 266 265 263 262 261 259 258 257 255 253 252 251 252 252 252 252 252 252 252 252 252 252
266 263 261 258 257 256 257 259 260 262 263 264 264 264 263 263 263 265 268 270 267 261 260 261 260 258 259 261 264 265 264 264 266 268 269 272 274 276 277 279 281 282 281 283 289 293 293 290 287 285 283 281 279 278 277 276 275 273 272 271 270 269 268 267 266 265 263 262 260 259 258 256 255 253 251 251 251 252 251 251 250 251 251 251 251
267 266 264 262 259 257 256 256 257 258 259 261 262 262 262 262 262 262 265 267 267 264 257 253 255 256 257 259 261 261 261 262 264 265 267 270 273 274 276 279 281 281 281 286 293 297 296 294 289 285 283 281 279 277 276 275 275 274 272 271 270 269 268 267 266 265 264 263 261 260 258 257 256 255 253 251 251 251 251 251 250 249 249 250 250
267 266 265 263 261 259 258 257 257 257 258 259 259 258 259 259 258 259 260 261 263 264 258 250 251 256 258 258 258 259 261 263 264 265 267 269 271 273 276 280 281 280 282 290 296 298 297 295 291 287 284 282 279 277 276 275 274 273 272 271 270 269 268 266 265 264 264 263 262 260 258 257 256 256 254 253 251 250 250 250 250 250 249 248 249
264 264 263 261 258 257 256 257 257 257 257 257 256 256 255 255 254 254 256 257 258 259 260 255 252 255 257 256 257 260 262 264 265 266 267 269 271 273 276 280 281 281 286 293 296 297 297 296 292 288 284 282 280 278 277 276 275 274 273 272 270 269 268 267 265 264 263 262 261 260 258 257 255 255 255 254 252 251 250 249 249 249 249 248 247
261 260 259 258 257 256 256 257 257 257 257 256 255 253 252 252 251 250 251 254 254 255 259 259 254 253 255 254 258 263 264 266 267 266 268 269 271 273 277 280 282 284 288 292 294 296 297 296 292 288 285 282 281 280 279 278 277 276 274 273 271 270 269 268 267 265 264 262 261 260 258 257 255 254 253 254 253 252 250 249 248 248 248 248 247
260 260 259 257 257 257 257 257 257 256 257 257 256 254 252 251 250 247 246 249 251 252 256 255 251 251 253 257 262 265 264 265 266 267 268 269 271 274 277 280 283 286 289 291 293 295 297 295 291 287 285 283 282 282 281 280 279 277 276 274 273 271 270 269 267 266 265 263 262 260 259 257 256 254 252 252 252 252 251 250 248 247 247 247 247
262 263 263 261 260 260 259 258 256 255 257 259 257 255 253 251 250 247 244 245 247 249 251 252 254 254 256 263 268 265 263 264 265 266 268 269 272 275 277 280 284 286 288 290 292 295 296 294 289 286 284 283 283 283 282 281 280 278 277 275 273 272 270 269 268 267 265 264 263 261 260 258 256 255 253 251 251 251 251 250 249 248 246 245 245
265 266 267 266 264 263 262 259 257 256 257 259 257 254 252 252 249 247 244 242 244 247 248 252 256 257 260 270 271 265 263 265 266 267 269 271 274 276 277 281 283 285 288 290 292 295 296 293 289 286 285 285 285 285 284 282 281 279 278 277 275 273 272 271 270 268 267 265 264 263 261 259 257 255 254 252 250 250 250 249 249 248 246 245 243
267 266 267 268 265 263 262 260 256 255 256 258 257 253 252 251 249 247 245 243 243 246 248 251 254 256 262 271 271 266 267 267 267 269 271 273 275 277 278 281 283 285 288 290 292 295 295 292 288 287 288 288 287 286 284 283 282 281 280 279 278 276 275 273 272 270 269 267 265 264 263 261 259 257 255 252 250 249 248 248 248 247 246 245 243
268 266 267 268 267 264 263 260 256 255 256 255 253 250 249 249 248 246 244 242 242 245 247 250 253 256 260 265 266 266 268 268 268 271 273 274 277 278 280 282 284 286 289 291 292 294 293 290 289 289 290 289 288 287 286 285 284 283 282 281 279 278 276 274 273 271 269 267 266 264 263 261 260 259 256 254 251 248 247 246 246 246 245 244 244
268 267 266 266 266 266 266 263 257 254 252 251 249 246 245 247 248 246 243 241 240 242 246 250 252 254 256 260 264 267 269 270 271 272 274 275 277 278 281 284 286 288 290 291 292 293 291 290 291 291 291 290 288 288 287 287 285 284 282 281 279 278 276 275 273 271 269 267 265 263 262 261 259 258 256 254 251 249 247 245 244 244 243 243 242
271 269 267 264 262 265 266 265 261 256 251 247 245 242 241 243 242 237 235 236 236 238 243 247 249 251 256 261 266 269 270 270 271 272 273 275 277 280 283 286 288 290 291 292 293 292 292 292 292 292 291 290 289 289 288 287 285 283 282 280 278 277 277 276 275 272 270 268 265 264 263 262 261 259 257 255 252 250 248 245 243 242 241 241 240
275 270 268 263 262 266 267 264 261 258 254 247 241 240 240 236 227 220 221 228 232 235 240 245 249 254 259 264 267 269 269 269 270 272 274 277 280 283 286 288 290 291 292 293 293 292 292 292 291 291 290 290 290 289 288 286 284 282 280 279 279 278 279 278 276 273 270 267 265 264 263 262 261 260 258 256 254 252 249 247 244 242 241 240 240
277 271 267 265 265 265 263 260 258 254 252 249 239 230 224 217 211 213 218 223 228 235 242 249 256 261 264 267 268 268 268 269 271 274 278 281 284 286 288 289 291 292 293 294 293 292 292 292 291 291 291 290 290 289 287 285 283 281 280 280 280 281 281 279 276 273 270 267 264 262 261 260 259 258 256 255 254 252 251 248 245 242 240 240 239
277 272 269 269 266 258 256 260 255 241 237 237 224 207 200 203 208 215 220 224 234 245 252 260 264 265 266 267 266 267 269 271 275 278 281 284 286 288 290 291 293 293 294 293 293 293 292 292 291 291 290 289 289 288 286 284 283 283 284 284 284 284 281 278 275 272 269 266 264 261 260 259 258 256 254 253 252 251 250 248 246 243 240 238 238
276 274 270 267 263 258 258 255 240 226 223 224 216 204 201 208 213 217 223 231 243 252 258 262 263 263 263 264 265 269 273 275 279 282 284 287 289 291 292 293 293 294 294 293 293 293 293 292 292 291 290 289 288 286 284 283 285 286 287 287 286 284 279 275 273 270 268 266 265 264 263 262 261 258 255 253 251 249 248 247 245 243 240 238 237
276 274 268 267 264 255 246 225 211 213 214 215 213 210 211 215 219 224 230 234 241 249 254 257 258 259 263 266 270 274 277 280 283 285 287 290 291 293 294 294 294 294 295 295 295 294 294 293 293 292 291 289 287 285 285 287 289 288 287 287 284 278 274 273 272 271 271 270 269 269 270 269 267 264 260 256 252 248 246 246 244 242 240 237 235
270 262 258 264 252 226 215 203 194 200 203 202 205 208 214 221 226 227 227 231 239 245 249 253 258 263 267 270 274 278 280 283 285 287 290 292 293 294 295 296 296 297 297 297 296 295 295 295 294 293 290 288 287 289 291 292 290 287 286 283 277 272 272 272 271 272 273 272 271 271 272 271 269 265 260 256 252 247 245 243 242 240 238 236 233
257 245 247 252 229 202 204 206 203 202 199 196 200 205 209 214 217 218 224 233 239 245 252 259 264 268 271 274 278 281 283 286 288 290 293 294 295 296 298 298 299 300 299 298 298 298 298 297 296 293 290 289 291 294 295 293 287 284 282 278 273 274 275 273 270 270 271 272 272 272 272 271 268 262 256 252 247 244 242 239 237 236 235 234 232
229 223 231 238 218 193 192 196 201 204 199 193 195 198 198 201 209 217 225 234 244 255 262 266 267 270 274 277 281 285 288 290 292 294 296 297 299 300 301 301 301 300 300 300 301 301 300 298 296 294 294 297 299 300 297 290 284 281 279 275 274 277 278 275 273 272 271 271 272 272 272 271 267 258 248 244 244 243 239 234 230 230 230 229 228
207 203 211 227 213 177 164 177 195 197 188 187 191 191 193 201 214 223 231 243 254 260 262 264 268 272 276 281 287 291 293 295 296 297 300 302 303 303 302 302 302 302 303 304 304 304 302 299 297 298 300 302 305 306 301 291 282 278 276 276 278 281 281 278 274 272 271 271 271 270 271 270 262 248 238 239 244 242 235 230 227 225 225 225 224
Height
5767 5768 5769 5772 5773 5776 5780 5782 5783 5781 5779 5781 5782 5781 5781 5780 5780 5780 5780 5779 5779 5779 5780 5781 5781 5782 5783 5783 5784 5784 5784 5784 5785 5785 5786 5787 5787 5788 5788 5789 5789 5791 5794 5796 5797 5798 5798 5798 5799 5801 5803 5804 5805 5806 5807 5809 5810 5811 5812 5813 5815 5817 5818 5819 5821 5822 5823 5824 5825 5828 5829 5830 5831 5833 5835 5836 5837 5838 5840 5842 5843 5844 5846 5847 5848
5763 5763 5765 5767 5768 5771 5775 5778 5779 5777 5775 5777 5778 5778 5777 5777 5777 5777 5777 5776 5776 5776 5777 5777 5778 5778 5780 5780 5780 5781 5781 5781 5782 5782 5783 5784 5784 5785 5786 5786 5787 5788 5790 5792 5794 5795 5796 5796 5797 5798 5799 5800 5801 5802 5803 5805 5807 5808 5809 5810 5812 5813 5815 5816 5818 5819 5820 5821 5822 5825 5827 5828 5828 5829 5832 5833 5833 5834 5836 5838 5840 5841 5842 5843 5845
5760 5759 5760 5762 5764 5767 5771 5774 5775 5773 5771 5773 5774 5774 5774 5774 5774 5774 5774 5773 5772 5773 5773 5774 5775 5775 5776 5777 5777 5778 5778 5779 5779 5779 5780 5781 5781 5782 5782 5783 5784 5785 5786 5788 5789 5791 5792 5793 5794 5794 5795 5796 5797 5798 5799 5800 5802 5804 5805 5807 5808 5809 5811 5812 5814 5815 5816 5817 5819 5822 5824 5824 5825 5827 5828 5828 5829 5831 5832 5834 5836 5837 5839 5840 5841
5758 5757 5755 5756 5758 5763 5767 5770 5771 5769 5768 5769 5770 5771 5771 5771 5771 5771 5771 5770 5769 5769 5770 5771 5771 5772 5773 5773 5774 5774 5775 5776 5776 5777 5777 5778 5778 5779 5780 5780 5781 5782 5783 5784 5785 5787 5788 5789 5790 5791 5792 5792 5793 5794 5795 5796 5798 5799 5801 5803 5804 5805 5807 5807 5809 5810 5812 5813 5815 5818 5820 5821 5823 5824 5823 5824 5825 5827 5829 5830 5831 5832 5834 5836 5838
5754 5754 5753 5751 5753 5758 5762 5765 5766 5766 5764 5764 5766 5767 5768 5768 5768 5768 5768 5767 5767 5766 5767 5767 5768 5769 5769 5770 5771 5771 5771 5772 5773 5774 5774 5775 5775 5776 5777 5777 5778 5779 5780 5781 5781 5782 5784 5785 5786 5787 5788 5789 5790 5790 5791 5793 5794 5795 5796 5798 5799 5801 5802 5803 5804 5806 5808 5809 5810 5813 5815 5818 5820 5819 5819 5821 5821 5823 5825 5826 5827 5828 5830 5831 5833
5751 5751 5750 5748 5749 5753 5758 5760 5762 5762 5761 5761 5762 5762 5764 5765 5765 5764 5764 5764 5764 5764 5764 5764 5765 5766 5767 5767 5768 5768 5769 5769 5770 5771 5771 5772 5773 5773 5774 5774 5775 5776 5777 5778 5778 5779 5780 5781 5782 5783 5784 5785 5786 5787 5788 5789 5790 5790 5792 5794 5795 5797 5798 5799 5801 5802 5803 5803 5806 5809 5811 5813 5815 5814 5815 5817 5817 5819 5821 5822 5824 5825 5826 5827 5829
5749 5749 5748 5746 5746 5749 5753 5756 5757 5757 5757 5758 5758 5758 5759 5761 5761 5761 5761 5761 5761 5761 5761 5761 5762 5763 5764 5764 5765 5765 5766 5767 5767 5768 5768 5769 5770 5770 5771 5771 5772 5773 5774 5775 5776 5776 5777 5778 5778 5779 5780 5781 5782 5783 5784 5785 5785 5786 5788 5789 5791 5793 5794 5795 5797 5798 5797 5799 5802 5804 5805 5807 5808 5808 5811 5813 5813 5815 5817 5818 5821 5822 5822 5823 5825
5747 5747 5746 5744 5744 5746 5748 5751 5753 5753 5753 5754 5755 5754 5755 5757 5758 5758 5758 5757 5757 5758 5759 5758 5759 5759 5761 5761 5762 5763 5763 5764 5764 5765 5765 5766 5767 5767 5768 5768 5769 5770 5771 5772 5773 5773 5774 5775 5775 5776 5777 5778 5779 5780 5780 5781 5782 5782 5784 5785 5787 5788 5789 5790 5792 5792 5792 5795 5797 5798 5799 5801 5801 5802 5805 5808 5809 5811 5812 5814 5816 5817 5818 5820 5821
5745 5745 5744 5743 5743 5743 5745 5747 5749 5749 5749 5750 5751 5751 5752 5753 5754 5754 5755 5754 5754 5755 5755 5755 5755 5756 5757 5758 5759 5759 5760 5761 5761 5762 5763 5763 5764 5764 5765 5765 5766 5766 5767 5768 5769 5770 5771 5772 5772 5773 5773 5774 5775 5776 5777 5778 5778 5779 5780 5781 5783 5783 5784 5785 5787 5787 5788 5790 5792 5792 5794 5796 5796 5798 5800 5802 5803 5806 5808 5809 5810 5811 5813 5816 5817
5743 5742 5741 5741 5741 5742 5742 5743 5744 5745 5745 5745 5746 5747 5748 5750 5751 5751 5751 5751 5751 5751 5752 5752 5752 5752 5753 5754 5755 5756 5757 5758 5758 5759 5760 5760 5761 5761 5762 5762 5762 5763 5763 5764 5765 5766 5767 5768 5769 5769 5770 5770 5771 5772 5773 5774 5775 5775 5776 5777 5778 5779 5779 5780 5782 5783 5783 5785 5787 5788 5789 5790 5792 5793 5795 5796 5797 5799 5801 5804 5805 5805 5808 5810 5811
5739 5739 5738 5738 5738 5739 5740 5740 5741 5741 5741 5741 5742 5743 5744 5746 5747 5747 5748 5748 5748 5748 5749 5749 5749 5749 5750 5750 5751 5752 5753 5755 5755 5756 5756 5757 5758 5758 5759 5759 5759 5759 5760 5760 5761 5762 5763 5764 5765 5766 5766 5767 5767 5768 5769 5770 5771 5771 5772 5773 5773 5774 5775 5776 5777 5778 5779 5780 5782 5783 5784 5785 5787 5788 5789 5791 5791 5793 5795 5798 5800 5800 5802 5805 5806
5736 5736 5736 5736 5735 5736 5737 5738 5738 5738 5738 5739 5739 5739 5740 5742 5743 5744 5744 5744 5744 5744 5745 5746 5746 5747 5747 5747 5748 5749 5750 5751 5752 5753 5753 5754 5754 5755 5755 5756 5756 5756 5757 5757 5758 5758 5759 5760 5761 5761 5762 5763 5763 5764 5765 5765 5766 5767 5768 5768 5769 5770 5771 5771 5772 5774 5774 5775 5776 5777 5778 5780 5781 5783 5785 5785 5786 5788 5789 5791 5794 5794 5796 5799 5800
5733 5733 5734 5734 5734 5734 5735 5735 5736 5736 5736 5735 5735 5736 5737 5738 5739 5740 5740 5741 5741 5741 5741 5742 5743 5744 5744 5744 5744 5745 5746 5747 5748 5749 5750 5750 5751 5752 5752 5753 5753 5753 5754 5754 5755 5755 5755 5756 5757 5757 5758 5759 5759 5760 5761 5761 5762 5763 5763 5764 5764 5765 5766 5767 5767 5768 5769 5770 5771 5772 5773 5774 5775 5777 5779 5780 5781 5782 5782 5784 5788 5788 5789 5792 5794
5728 5729 5729 5730 5731 5731 5732 5732 5733 5733 5733 5732 5732 5732 5733 5734 5735 5736 5737 5738 5738 5738 5738 5739 5739 5740 5741 5741 5741 5742 5743 5743 5745 5745 5746 5747 5747 5748 5749 5749 5750 5750 5751 5751 5752 5752 5752 5752 5753 5753 5754 5754 5755 5756 5756 5757 5758 5758 5759 5759 5759 5760 5761 5762 5762 5763 5764 5764 5765 5766 5767 5768 5770 5771 5772 5774 5775 5776 5776 5779 5782 5782 5782 5784 5786
5722 5723 5723 5724 5726 5727 5728 5728 5729 5729 5729 5729 5729 5729 5729 5729 5730 5731 5733 5734 5735 5735 5735 5735 5736 5736 5737 5737 5737 5738 5739 5739 5740 5741 5742 5742 5743 5744 5745 5745 5746 5747 5747 5748 5748 5748 5748 5748 5749 5749 5750 5750 5751 5751 5752 5752 5753 5754 5754 5754 5754 5755 5755 5756 5757 5757 5758 5759 5759 5760 5761 5762 5763 5765 5766 5767 5769 5770 5771 5773 5776 5776 5776 5778 5780
5718 5718 5717 5717 5718 5721 5723 5724 5724 5725 5725 5725 5724 5724 5725 5725 5726 5727 5728 5730 5731 5732 5731 5731 5732 5733 5733 5733 5734 5734 5735 5735 5736 5737 5737 5738 5739 5740 5740 5741 5742 5742 5743 5743 5744 5744 5744 5744 5744 5745 5745 5745 5746 5746 5747 5748 5748 5748 5749 5749 5749 5749 5750 5751 5751 5752 5752 5753 5754 5755 5756 5757 5757 5758 5760 5761 5763 5764 5765 5767 5769 5770 5771 5772 5774
5716 5714 5713 5713 5713 5715 5717 5719 5720 5720 5720 5721 5720 5720 5720 5721 5722 5723 5724 5726 5727 5727 5727 5728 5728 5728 5729 5729 5730 5730 5731 5731 5732 5733 5733 5733 5734 5735 5735 5736 5737 5737 5738 5738 5738 5739 5739 5739 5739 5739 5740 5740 5741 5741 5742 5742 5743 5743 5743 5743 5743 5744 5745 5745 5745 5745 5746 5747 5748 5748 5750 5751 5751 5752 5753 5755 5756 5757 5759 5760 5762 5764 5764 5765 5767
5714 5713 5711 5710 5710 5711 5712 5714 5715 5716 5716 5717 5717 5716 5716 5717 5718 5718 5719 5721 5722 5723 5723 5723 5724 5724 5724 5725 5725 5726 5726 5727 5727 5728 5728 5729 5729 5730 5730 5731 5732 5732 5732 5733 5733 5733 5734 5734 5734 5734 5734 5734 5735 5735 5736 5736 5737 5737 5738 5738 5738 5738 5739 5739 5739 5739 5740 5740 5742 5742 5743 5745 5745 5746 5747 5748 5749 5750 5752 5753 5754 5756 5757 5757 5759
5711 5711 5709 5707 5707 5708 5709 5710 5711 5712 5713 5713 5713 5713 5713 5714 5714 5713 5714 5716 5717 5718 5719 5719 5719 5719 5720 5720 5721 5721 5722 5722 5723 5723 5723 5724 5724 5725 5725 5726 5726 5726 5727 5727 5728 5728 5728 5728 5728 5728 5728 5728 5729 5729 5729 5730 5730 5730 5731 5731 5732 5733 5733 5733 5732 5733 5734 5734 5735 5736 5736 5738 5739 5740 5741 5742 5743 5744 5745 5746 5748 5749 5750 5751 5752
5707 5708 5706 5704 5704 5704 5705 5706 5707 5708 5709 5710 5710 5710 5710 5710 5709 5709 5709 5711 5713 5714 5714 5714 5714 5715 5715 5715 5716 5716 5717 5717 5718 5718 5718 5719 5719 5719 5720 5720 5720 5721 5721 5721 5722 5722 5722 5722 5722 5722 5722 5722 5722 5723 5723 5723 5724 5723 5723 5724 5725 5726 5727 5727 5726 5727 5727 5728 5729 5729 5730 5731 5731 5733 5734 5735 5736 5737 5738 5739 5741 5742 5743 5744 5745
5704 5704 5703 5702 5700 5701 5702 5702 5703 5705 5705 5706 5707 5707 5707 5706 5705 5704 5705 5707 5708 5709 5710 5710 5710 5710 5710 5711 5711 5711 5712 5712 5713 5713 5713 5714 5714 5714 5714 5714 5715 5715 5715 5715 5715 5716 5716 5716 5716 5716 5716 5716 5716 5716 5716 5717 5717 5717 5717 5717 5717 5719 5720 5721 5721 5721 5720 5721 5722 5723 5723 5723 5724 5726 5727 5728 5729 5730 5731 5732 5733 5735 5736 5737 5738
5700 5699 5700 5700 5698 5697 5698 5698 5699 5700 5701 5702 5703 5703 5703 5703 5702 5702 5702 5703 5704 5705 5705 5705 5705 5705 5706 5706 5706 5707 5707 5707 5707 5708 5708 5708 5708 5709 5709 5709 5709 5709 5709 5709 5709 5709 5709 5709 5709 5709 5709 5709 5709 5709 5709 5709 5710 5710 5710 5710 5710 5711 5712 5713 5714 5715 5714 5714 5715 5716 5717 5717 5716 5718 5720 5721 5722 5723 5724 5725 5727 5727 5729 5730 5731
5695 5695 5695 5696 5695 5694 5694 5694 5694 5695 5696 5697 5698 5699 5700 5700 5699 5698 5698 5699 5700 5700 5701 5701 5700 5701 5701 5702 5702 5702 5702 5703 5703 5703 5703 5703 5703 5703 5703 5703 5703 5703 5703 5703 5703 5703 5703 5703 5702 5702 5702 5702 5702 5702 5702 5702 5702 5702 5703 5703 5703 5703 5704 5705 5706 5707 5708 5708 5709 5709 5710 5710 5710 5711 5712 5713 5714 5716 5717 5718 5720 5720 5722 5723 5724
5691 5690 5691 5692 5691 5690 5690 5690 5690 5690 5690 5691 5693 5694 5695 5696 5696 5695 5695 5695 5696 5696 5696 5696 5696 5697 5697 5697 5698 5698 5698 5698 5698 5698 5698 5698 5698 5698 5698 5697 5697 5696 5696 5696 5696 5696 5696 5696 5696 5695 5695 5694 5694 5694 5694 5694 5694 5694 5695 5695 5696 5696 5697 5697 5698 5699 5700 5701 5702 5702 5702 5703 5704 5704 5705 5705 5706 5708 5709 5710 5712 5713 5714 5716 5717
5685 5685 5686 5687 5687 5686 5686 5686 5685 5685 5685 5684 5685 5688 5690 5691 5691 5692 5691 5691 5692 5692 5692 5692 5692 5692 5693 5693 5693 5693 5693 5693 5693 5693 5693 5693 5693 5693 5692 5692 5691 5690 5690 5690 5690 5689 5689 5689 5689 5688 5688 5687 5686 5686 5686 5686 5686 5686 5686 5687 5688 5689 5689 5689 5690 5691 5692 5693 5694 5695 5695 5695 5696 5697 5698 5699 5699 5700 5701 5702 5704 5706 5707 5709 5710
5681 5680 5680 5681 5681 5681 5682 5682 5681 5680 5680 5679 5680 5681 5683 5684 5685 5686 5686 5687 5688 5688 5688 5687 5687 5687 5688 5688 5688 5688 5688 5688 5688 5688 5688 5688 5688 5687 5687 5686 5685 5685 5684 5684 5684 5683 5683 5683 5682 5681 5681 5680 5680 5679 5679 5678 5678 5677 5678 5679 5680 5681 5681 5682 5682 5683 5683 5685 5686 5687 5688 5688 5689 5690 5690 5691 5692 5693 5693 5694 5696 5698 5699 5701 5702
5676 5675 5675 5675 5675 5676 5676 5677 5676 5675 5674 5675 5675 5676 5677 5678 5679 5679 5680 5681 5682 5683 5683 5682 5682 5682 5682 5682 5683 5683 5683 5682 5682 5682 5682 5682 5682 5682 5681 5680 5680 5679 5679 5678 5678 5678 5677 5676 5676 5675 5674 5673 5672 5672 5672 5671 5670 5670 5670 5670 5671 5672 5673 5674 5674 5675 5675 5676 5678 5679 5680 5680 5681 5682 5682 5683 5684 5685 5686 5687 5688 5689 5690 5692 5694
5669 5669 5669 5670 5669 5669 5669 5670 5670 5669 5668 5670 5670 5671 5671 5672 5673 5673 5674 5674 5675 5676 5676 5676 5676 5677 5676 5676 5677 5677 5677 5677 5677 5677 5677 5677 5676 5676 5675 5675 5674 5674 5673 5673 5672 5672 5671 5670 5668 5667 5666 5665 5665 5664 5664 5663 5663 5662 5662 5662 5662 5663 5664 5665 5666 5667 5667 5668 5669 5670 5671 5672 5673 5674 5675 5675 5676 5677 5678 5680 5681 5681 5682 5684 5686
5661 5662 5662 5663 5662 5662 5662 5662 5662 5662 5662 5663 5664 5664 5665 5666 5667 5667 5667 5668 5669 5669 5669 5669 5670 5670 5670 5670 5671 5671 5671 5671 5671 5671 5671 5671 5671 5670 5670 5669 5669 5669 5668 5667 5667 5666 5664 5663 5661 5660 5659 5658 5657 5656 5655 5655 5654 5654 5654 5654 5654 5654 5655 5656 5657 5658 5659 5659 5660 5661 5662 5664 5665 5665 5666 5667 5668 5669 5669 5672 5673 5673 5674 5676 5678
5653 5654 5655 5656 5656 5655 5655 5655 5654 5654 5654 5655 5656 5657 5658 5659 5661 5660 5660 5661 5663 5663 5662 5661 5662 5663 5663 5664 5665 5665 5666 5665 5665 5665 5665 5665 5665 5665 5665 5664 5664 5663 5663 5662 5662 5660 5658 5656 5655 5653 5652 5650 5649 5648 5647 5647 5646 5646 5646 5645 5645 5646 5646 5647 5648 5649 5650 5651 5651 5652 5653 5654 5656 5657 5658 5658 5659 5660 5661 5663 5665 5665 5666 5668 5670
5642 5644 5645 5647 5648 5648 5648 5647 5647 5647 5646 5647 5649 5650 5651 5652 5654 5654 5653 5655 5656 5656 5655 5654 5655 5656 5656 5657 5658 5659 5659 5659 5659 5659 5659 5659 5659 5659 5659 5659 5658 5658 5657 5657 5656 5654 5652 5650 5648 5647 5645 5643 5642 5641 5639 5639 5638 5637 5637 5637 5637 5637 5637 5638 5638 5639 5641 5642 5643 5643 5644 5645 5646 5647 5649 5650 5650 5651 5652 5654 5656 5657 5659 5660 5662
5633 5634 5636 5637 5639 5640 5639 5639 5639 5639 5639 5639 5641 5642 5643 5645 5648 5648 5647 5647 5649 5650 5649 5646 5646 5648 5650 5651 5652 5653 5653 5653 5653 5654 5654 5653 5653 5653 5653 5653 5652 5652 5651 5651 5649 5647 5645 5643 5641 5640 5638 5636 5635 5633 5632 5631 5630 5629 5628 5628 5628 5629 5629 5629 5629 5630 5631 5632 5633 5634 5635 5636 5637 5638 5639 5640 5641 5643 5643 5645 5646 5648 5650 5652 5654
5624 5626 5627 5627 5628 5629 5629 5629 5630 5630 5630 5630 5632 5634 5636 5638 5641 5643 5641 5641 5642 5644 5644 5640 5640 5642 5644 5645 5646 5647 5647 5647 5647 5647 5648 5647 5647 5647 5647 5647 5646 5646 5646 5644 5642 5640 5638 5635 5634 5632 5631 5629 5627 5626 5624 5623 5622 5621 5620 5619 5619 5620 5620 5621 5621 5621 5622 5623 5624 5625 5626 5627 5628 5628 5629 5630 5631 5633 5634 5635 5637 5639 5642 5644 5646
5616 5616 5616 5616 5616 5617 5618 5619 5620 5621 5621 5620 5622 5625 5627 5629 5632 5635 5635 5634 5635 5638 5639 5637 5635 5637 5639 5639 5640 5641 5640 5641 5641 5641 5641 5641 5641 5641 5641 5641 5640 5640 5639 5638 5635 5633 5631 5629 5627 5625 5623 5622 5620 5618 5616 5615 5614 5612 5611 5611 5610 5611 5611 5612 5612 5612 5612 5613 5614 5614 5616 5618 5619 5619 5620 5620 5621 5622 5624 5626 5628 5630 5633 5636 5638
5608 5607 5607 5607 5607 5608 5609 5611 5611 5611 5611 5611 5612 5616 5618 5619 5623 5626 5627 5628 5629 5631 5634 5634 5631 5631 5633 5634 5634 5634 5633 5634 5634 5635 5635 5635 5635 5635 5635 5635 5634 5634 5633 5631 5628 5626 5624 5622 5620 5617 5616 5614 5612 5610 5609 5607 5606 5604 5603 5602 5601 5602 5602 5602 5603 5603 5603 5604 5604 5604 5606 5607 5609 5610 5611 5610 5611 5612 5614 5616 5619 5622 5624 5627 5629
5599 5598 5598 5598 5598 5599 5601 5602 5603 5603 5603 5604 5604 5606 5609 5611 5614 5617 5619 5621 5623 5625 5628 5629 5625 5626 5628 5628 5627 5627 5627 5627 5628 5628 5629 5629 5629 5629 5629 5629 5628 5627 5625 5623 5621 5619 5617 5615 5612 5610 5608 5607 5605 5603 5601 5599 5597 5596 5594 5593 5592 5592 5593 5593 5593 5593 5593 5594 5594 5594 5595 5596 5598 5600 5601 5602 5602 5602 5603 5606 5609 5612 5615 5618 5621
5591 5590 5590 5589 5590 5591 5592 5593 5594 5594 5595 5596 5596 5598 5600 5602 5605 5608 5611 5614 5616 5619 5623 5622 5619 5620 5623 5623 5621 5621 5620 5621 5622 5622 5623 5623 5623 5623 5623 5623 5621 5619 5617 5616 5614 5612 5610 5607 5605 5603 5601 5599 5597 5595 5592 5590 5588 5586 5585 5584 5583 5583 5583 5583 5583 5583 5583 5584 5584 5584 5585 5586 5587 5589 5591 5592 5592 5592 5594 5597 5599 5602 5605 5609 5614
5582 5581 5581 5581 5582 5583 5583 5584 5585 5586 5587 5588 5588 5589 5591 5594 5597 5599 5603 5606 5609 5613 5617 5616 5613 5615 5618 5616 5614 5614 5614 5615 5616 5617 5617 5618 5618 5617 5617 5616 5614 5612 5610 5608 5607 5604 5602 5600 5597 5595 5593 5591 5589 5586 5584 5581 5580 5577 5576 5575 5574 5573 5573 5573 5573 5574 5574 5574 5574 5574 5574 5575 5576 5578 5579 5581 5582 5583 5585 5587 5589 5592 5595 5600 5606
5574 5573 5573 5574 5574 5574 5575 5575 5577 5578 5579 5579 5580 5582 5584 5587 5589 5591 5595 5599 5603 5607 5609 5608 5609 5611 5612 5609 5608 5608 5609 5610 5611 5612 5612 5612 5612 5611 5610 5608 5606 5604 5603 5601 5599 5597 5594 5592 5589 5587 5584 5582 5580 5578 5575 5573 5571 5569 5567 5566 5565 5564 5563 5563 5563 5564 5564 5564 5564 5564 5564 5564 5565 5566 5567 5569 5571 5573 5575 5578 5579 5581 5585 5592 5596
5567 5566 5567 5568 5568 5567 5567 5568 5569 5571 5571 5571 5572 5574 5577 5579 5582 5584 5587 5592 5598 5601 5601 5602 5605 5607 5604 5602 5602 5604 5605 5605 5606 5606 5607 5606 5606 5605 5603 5601 5599 5597 5596 5594 5591 5589 5587 5584 5581 5579 5576 5574 5572 5570 5568 5565 5563 5561 5559 5557 5555 5554 5554 5553 5554 5554 5554 5554 5554 5554 5554 5554 5554 5554 5555 5557 5559 5562 5565 5567 5568 5571 5578 5583 5584
5561 5561 5561 5562 5561 5560 5559 5560 5562 5563 5563 5564 5565 5568 5570 5574 5577 5579 5582 5587 5591 5593 5595 5597 5599 5599 5597 5596 5598 5599 5600 5600 5600 5601 5600 5600 5599 5598 5597 5594 5592 5590 5588 5586 5583 5581 5579 5576 5574 5571 5569 5566 5564 5562 5560 5557 5554 5552 5550 5548 5546 5545 5544 5543 5544 5544 5544 5545 5544 5544 5544 5543 5543 5543 5544 5545 5548 5551 5553 5556 5558 5563 5568 5570 5570
5555 5555 5555 5555 5556 5554 5553 5553 5555 5555 5556 5558 5560 5563 5566 5569 5572 5575 5577 5579 5582 5586 5589 5590 5590 5590 5591 5592 5594 5595 5595 5595 5595 5595 5595 5594 5593 5592 5590 5588 5586 5583 5581 5579 5576 5573 5571 5569 5566 5564 5561 5559 5557 5554 5552 5549 5546 5543 5541 5539 5537 5536 5535 5534 5534 5535 5535 5535 5535 5534 5534 5534 5533 5533 5533 5534 5537 5539 5542 5545 5550 5554 5556 5557 5559
5550 5549 5549 5549 5549 5549 5548 5548 5550 5550 5551 5553 5556 5558 5561 5563 5566 5569 5572 5573 5576 5580 5582 5583 5583 5585 5587 5588 5589 5590 5590 5590 5590 5589 5589 5588 5587 5586 5584 5582 5579 5576 5574 5571 5569 5566 5564 5562 5560 5557 5554 5552 5549 5546 5543 5540 5537 5535 5533 5531 5529 5528 5526 5524 5524 5524 5525 5525 5524 5524 5524 5524 5523 5523 5524 5525 5527 5529 5532 5536 5539 5542 5544 5546 5549
5545 5544 5543 5543 5544 5545 5544 5544 5545 5547 5548 5550 5551 5553 5555 5559 5563 5566 5568 5570 5572 5574 5576 5577 5579 5581 5583 5584 5585 5585 5585 5585 5584 5584 5583 5582 5581 5579 5578 5575 5572 5569 5567 5564 5562 5559 5557 5555 5553 5551 5548 5544 5541 5538 5535 5531 5529 5527 5525 5523 5521 5519 5517 5515 5513 5514 5514 5514 5514 5514 5514 5514 5514 5514 5515 5516 5518 5520 5523 5526 5528 5530 5534 5536 5539
5541 5540 5539 5539 5540 5541 5541 5540 5542 5544 5546 5547 5548 5550 5552 5556 5560 5563 5565 5566 5566 5568 5570 5573 5575 5577 5578 5580 5580 5580 5580 5580 5580 5579 5578 5576 5575 5573 5571 5568 5565 5562 5560 5558 5555 5553 5550 5548 5546 5543 5541 5537 5534 5530 5527 5524 5521 5519 5517 5514 5512 5510 5508 5505 5504 5505 5505 5505 5506 5506 5506 5506 5506 5506 5506 5507 5509 5511 5513 5515 5517 5520 5523 5526 5531
5537 5536 5536 5536 5537 5538 5538 5537 5538 5541 5543 5545 5547 5549 5551 5554 5556 5559 5560 5560 5560 5563 5566 5569 5571 5573 5575 5575 5576 5576 5576 5576 5575 5574 5572 5570 5569 5566 5564 5561 5559 5556 5554 5551 5549 5547 5544 5542 5539 5536 5533 5530 5526 5523 5520 5517 5514 5511 5508 5505 5503 5502 5500 5498 5497 5498 5498 5498 5499 5499 5499 5499 5498 5498 5498 5499 5500 5502 5503 5505 5508 5510 5514 5518 5523
5534 5534 5533 5533 5534 5535 5536 5535 5535 5537 5540 5543 5545 5548 5550 5551 5553 5554 5554 5555 5557 5561 5564 5566 5568 5570 5571 5571 5572 5572 5571 5571 5570 5568 5567 5565 5562 5560 5558 5555 5552 5550 5547 5545 5543 5540 5538 5535 5532 5528 5525 5522 5519 5516 5513 5510 5507 5504 5500 5498 5497 5495 5493 5492 5492 5491 5491 5492 5492 5492 5491 5491 5491 5490 5490 5491 5492 5494 5495 5497 5500 5503 5506 5511 5516
5531 5532 5532 5532 5532 5533 5534 5534 5534 5535 5537 5540 5543 5546 5548 5549 5550 5550 5551 5553 5556 5559 5561 5563 5565 5566 5567 5568 5568 5568 5567 5566 5564 5563 5561 5559 5557 5554 5552 5549 5546 5544 5542 5539 5537 5534 5531 5527 5524 5521 5518 5515 5513 5510 5506 5503 5500 5496 5494 5492 5491 5489 5488 5487 5486 5486 5486 5486 5486 5486 5485 5484 5484 5483 5483 5484 5485 5487 5489 5490 5493 5496 5499 5503 5508
5528 5530 5530 5531 5531 5532 5532 5532 5533 5534 5536 5539 5542 5544 5546 5547 5547 5548 5550 5552 5555 5557 5558 5560 5562 5563 5564 5564 5564 5563 5562 5560 5559 5558 5556 5554 5551 5549 5546 5543 5541 5539 5536 5534 5531 5527 5524 5520 5517 5514 5511 5509 5507 5504 5500 5496 5492 5489 5488 5487 5486 5484 5484 5483 5481 5480 5480 5480 5480 5479 5479 5478 5478 5478 5478 5479 5480 5481 5483 5485 5487 5490 5493 5497 5502
5525 5527 5528 5529 5530 5531 5531 5531 5531 5533 5535 5538 5540 5542 5543 5544 5545 5547 5549 5550 5552 5554 5556 5557 5558 5559 5560 5560 5559 5559 5557 5555 5554 5553 5552 5549 5546 5544 5541 5539 5536 5534 5531 5528 5524 5521 5517 5514 5511 5508 5505 5502 5499 5497 5494 5490 5486 5484 5482 5482 5482 5480 5479 5478 5476 5475 5475 5475 5475 5474 5473 5473 5472 5473 5473 5475 5476 5477 5478 5480 5482 5485 5488 5492 5496
5522 5524 5526 5527 5529 5530 5530 5529 5530 5532 5534 5536 5538 5539 5541 5542 5543 5544 5547 5548 5550 5552 5553 5554 5555 5556 5556 5555 5555 5554 5553 5551 5549 5548 5547 5544 5541 5539 5537 5535 5533 5530 5526 5522 5518 5515 5511 5508 5505 5502 5499 5496 5493 5490 5487 5484 5481 5479 5478 5478 5477 5476 5475 5474 5472 5471 5470 5470 5470 5469 5468 5468 5468 5468 5470 5471 5472 5473 5474 5476 5478 5481 5484 5488 5492